RH
3 4 4 5 7 7 10 13 18 19 17 21 24 38 36 32 42 54 51 54 40 36 32 27 26 36 22 36 19 9 10 11 16 23 37 49 54 61 76 70 21 6 4 4 4 3 3 3 3
3 4 4 6 7 7 14 14 13 16 21 36 39 40 42 43 40 58 58 51 43 40 32 27 28 37 29 17 12 9 23 49 40 40 30 39 59 53 51 34 12 4 4 4 4 4 3 3 3
6 4 5 6 6 16 23 34 31 28 22 38 46 44 50 46 56 54 55 52 49 51 41 31 28 33 38 24 10 9 32 94 60 42 52 39 34 31 23 13 6 4 4 4 4 4 4 4 4
6 5 6 11 21 21 22 30 33 33 30 36 41 42 47 50 51 55 62 56 52 57 51 41 32 33 38 37 15 8 8 14 9 9 8 9 12 12 8 4 4 4 4 4 4 4 4 4 4
6 7 8 11 21 23 26 32 31 27 24 26 30 37 38 39 50 58 63 63 53 56 57 48 43 48 48 40 28 10 7 7 6 5 4 4 4 4 3 3 3 4 4 4 4 4 4 4 4
5 7 9 22 24 26 26 24 22 19 17 16 17 20 25 29 30 36 58 65 59 59 65 62 50 44 57 37 37 26 8 6 6 5 4 4 4 4 3 3 4 4 4 5 5 5 4 4 4
8 8 21 28 27 28 25 22 20 20 20 16 13 13 16 17 18 23 34 50 50 48 60 63 60 51 48 43 37 36 26 8 6 6 5 4 4 4 4 4 4 4 4 5 5 5 5 5 4
6 15 25 27 27 27 24 22 19 12 8 7 9 15 19 15 15 27 27 28 30 38 49 64 77 80 54 53 46 42 36 24 8 6 5 4 4 4 4 4 4 4 4 5 6 6 6 5 5
6 12 26 28 28 24 16 15 13 6 6 8 8 10 16 19 17 20 24 27 23 27 36 63 69 82 85 68 58 50 47 39 24 9 6 6 5 4 4 4 4 4 4 5 6 6 6 6 5
8 16 24 20 16 10 10 9 8 8 7 7 6 7 7 8 9 10 11 15 25 23 26 42 64 76 84 88 87 70 53 48 42 28 12 6 6 5 5 5 4 4 4 5 6 6 6 6 6
11 12 13 14 16 16 15 15 13 11 10 6 6 8 10 10 8 6 6 7 8 16 28 27 78 83 74 81 96 89 80 59 51 44 35 14 7 6 6 6 6 5 4 5 5 6 6 6 6
14 16 16 16 16 17 16 16 18 13 11 9 8 7 8 9 9 8 7 7 6 6 9 11 15 36 73 80 85 99 99 92 68 54 51 40 16 7 7 7 7 6 5 5 5 6 6 6 7
15 15 17 17 23 22 20 17 20 20 17 16 15 14 13 14 12 10 8 8 8 8 7 9 11 10 20 68 94 96 97 99 99 85 59 54 42 19 8 7 8 8 6 5 5 5 6 7 7
16 24 24 28 26 24 21 18 19 20 20 19 18 18 17 16 14 14 14 12 10 9 9 8 8 10 9 19 60 87 97 98 92 99 90 63 61 51 25 8 8 8 9 6 5 6 6 7 7
22 28 24 26 24 26 24 22 24 24 21 20 20 21 20 18 15 14 16 19 18 15 11 11 9 8 10 10 17 59 100 97 97 98 99 100 77 74 64 26 8 8 10 9 6 6 6 6 7
24 26 20 25 30 33 30 25 29 26 22 18 20 20 20 19 19 20 21 20 22 21 20 17 13 11 9 10 10 58 96 99 81 99 94 99 97 100 82 68 23 9 10 12 9 6 6 7 8
20 24 22 26 34 32 34 23 27 29 22 20 23 20 22 22 26 32 33 31 27 25 25 22 19 17 13 10 10 12 24 67 99 97 95 98 99 96 100 89 62 12 10 13 11 8 7 8 9
18 20 19 25 26 23 23 21 27 29 21 22 22 30 28 28 34 38 37 38 34 29 25 25 25 20 22 15 12 11 20 39 71 88 100 99 99 98 98 100 94 28 10 13 13 9 8 9 10
18 20 19 26 25 21 22 22 26 24 26 26 32 34 34 40 45 51 51 43 35 36 31 24 25 28 24 25 16 12 11 14 21 89 99 100 99 100 100 100 97 41 12 14 13 11 10 10 10
20 20 23 27 25 24 22 22 24 28 32 36 38 39 47 54 56 52 41 35 30 31 32 29 29 32 34 34 28 17 16 13 17 26 58 100 99 100 99 100 98 68 16 15 14 13 12 12 12
22 21 29 31 24 33 31 26 30 33 34 42 45 52 54 56 52 44 41 32 28 27 27 29 29 31 34 36 35 24 20 18 15 17 18 22 64 99 99 99 100 100 53 18 16 15 13 12 14
21 25 30 30 34 50 47 54 36 34 40 43 44 48 48 43 41 42 38 30 28 27 29 32 31 30 30 34 36 34 32 25 21 23 27 34 66 80 91 100 100 98 97 45 20 20 17 17 16
26 26 27 28 56 72 57 64 36 39 43 42 42 43 44 40 40 41 35 32 27 32 31 30 29 27 25 29 34 39 40 28 26 31 32 73 86 87 99 99 100 100 100 100 45 24 21 19 20
27 25 27 57 79 90 69 60 36 43 42 43 45 47 41 40 41 39 33 34 32 30 32 30 30 30 30 28 36 41 42 30 27 29 36 86 71 98 100 100 93 96 100 100 94 48 32 25 24
31 31 32 60 94 82 63 59 33 45 41 48 47 46 40 35 35 37 36 32 34 33 31 36 35 32 33 33 37 41 44 45 30 37 46 82 78 97 96 100 99 96 99 100 98 71 32 35 30
37 43 42 51 72 75 40 53 40 48 49 50 48 44 37 36 38 50 48 35 31 36 41 44 36 42 44 42 38 43 50 43 64 69 64 71 90 100 98 96 98 97 100 99 99 95 74 39 32
47 53 64 68 72 92 52 51 50 50 50 48 46 41 42 37 49 58 54 44 35 38 47 47 44 58 45 66 49 50 84 98 60 90 93 69 78 100 99 94 100 100 100 100 99 98 50 36 34
48 60 64 75 92 88 63 50 30 45 49 50 46 35 39 39 54 64 49 48 57 51 49 52 51 52 64 57 64 82 97 72 94 76 61 74 76 87 100 95 100 100 98 78 68 60 48 41 41
56 61 62 64 74 86 98 51 32 38 50 49 45 48 43 42 52 71 50 38 37 37 51 60 61 57 67 65 62 54 53 66 81 96 100 86 87 94 99 99 100 98 81 73 75 67 53 56 54
62 67 61 76 65 74 86 71 40 44 38 45 52 55 43 45 54 76 43 40 40 38 37 61 70 62 57 62 80 77 65 59 100 100 99 99 98 99 100 99 100 97 96 94 98 96 86 63 59
Wind_Speed
7 9 11 12 9 8 14 7 16 14 10 10 11 10 11 14 10 7 6 11 9 7 9 10 9 7 7 9 10 12 14 16 18 20 20 18 18 18 19 17 11 8 7 6 5 5 7 9 11
3 7 11 12 9 11 7 9 13 16 9 10 10 9 9 10 10 2 5 11 10 7 8 11 10 9 8 8 10 11 12 13 17 19 21 21 20 19 18 15 11 10 9 9 8 7 7 8 8
4 7 10 7 9 7 6 7 7 8 12 12 13 13 12 11 10 11 11 9 11 8 8 10 11 10 9 9 10 11 12 14 15 16 17 20 22 19 16 13 12 11 10 9 9 9 9 8 8
4 9 9 6 7 8 4 9 8 7 6 14 14 13 13 13 13 14 16 15 11 7 10 10 11 12 11 11 11 12 13 14 14 13 14 14 16 16 15 13 13 11 10 9 9 9 9 9 9
6 8 8 6 7 6 5 6 8 9 10 9 13 14 12 14 14 16 18 18 17 13 12 13 11 14 14 12 12 12 14 15 15 15 16 15 15 15 14 14 12 10 10 9 9 9 9 9 9
4 7 8 6 4 7 5 6 8 10 12 13 15 15 17 17 16 19 21 20 15 11 15 16 15 16 15 15 14 14 14 15 16 17 17 16 16 15 15 14 13 12 10 9 9 9 9 9 9
2 5 9 4 7 8 7 10 12 13 18 18 16 20 20 21 21 21 21 21 18 17 15 16 18 19 19 16 17 16 16 16 17 18 18 17 17 17 16 15 15 14 12 11 10 9 10 10 10
3 6 6 5 6 10 12 13 14 14 16 16 14 15 20 24 24 20 19 19 19 20 19 17 15 21 21 21 18 19 18 18 18 19 18 18 18 18 18 17 16 16 14 13 12 12 12 11 9
3 4 5 4 5 8 11 12 13 12 9 7 9 16 21 24 27 18 18 19 21 21 22 20 21 21 21 23 22 22 22 20 20 20 19 18 19 19 18 18 17 17 16 15 14 14 13 14 10
2 1 2 4 6 8 10 12 11 11 9 8 9 12 19 22 22 19 22 24 23 24 24 26 26 24 25 25 24 24 24 23 22 21 20 19 20 20 20 19 19 19 18 17 17 16 16 16 11
3 3 3 4 6 7 7 9 10 9 7 8 8 9 11 13 11 11 14 15 21 29 30 27 30 28 29 28 28 30 27 26 25 24 22 20 22 21 20 20 20 20 19 19 19 18 18 18 13
5 4 4 3 6 6 6 9 8 6 4 5 7 7 9 11 13 12 14 15 16 18 26 33 35 33 34 34 35 31 30 30 27 27 25 23 23 22 21 21 21 21 20 21 21 21 21 20 15
3 3 3 2 6 8 8 10 4 5 4 5 6 7 8 10 12 13 13 15 17 16 19 23 32 36 35 38 36 36 36 34 32 29 29 27 25 23 22 23 24 22 22 22 22 23 23 21 17
0 3 4 2 7 6 8 7 5 7 8 8 9 11 10 10 9 10 11 12 14 17 17 20 23 30 36 40 40 38 36 38 29 33 30 29 27 26 23 24 25 25 24 24 23 23 24 23 19
0 2 6 4 11 8 8 5 8 12 11 11 11 11 11 14 13 10 10 12 13 15 18 19 21 25 29 37 43 41 37 38 38 38 34 31 29 27 26 25 24 25 25 25 25 25 26 25 22
5 4 10 13 10 11 13 4 10 13 18 13 12 12 12 13 13 13 11 13 15 16 18 19 22 23 27 30 37 40 44 40 43 42 40 39 34 29 30 28 25 26 27 26 26 26 27 26 25
5 8 12 12 14 18 17 14 9 15 16 12 10 8 9 12 11 13 14 15 17 20 20 21 23 24 25 29 32 39 44 48 40 50 40 44 38 38 31 29 28 27 28 27 27 27 28 28 27
7 10 13 13 18 15 19 20 9 12 10 7 3 8 12 11 12 15 19 22 22 21 24 25 25 25 25 28 33 37 41 43 51 45 36 47 40 49 38 34 31 29 29 29 29 29 30 29 28
9 11 16 15 12 25 25 17 14 4 3 3 6 11 12 13 18 23 27 30 26 24 23 25 27 27 28 28 31 34 39 41 46 47 40 40 40 41 32 32 32 32 30 29 30 31 30 31 31
11 14 14 12 19 22 20 14 6 5 2 7 9 13 13 16 19 25 30 31 28 24 25 25 26 25 27 28 28 31 35 39 39 47 46 38 37 40 45 35 36 39 34 33 32 31 31 31 30
13 14 14 21 25 19 15 7 4 4 4 6 7 10 13 17 23 30 32 29 26 23 24 23 22 23 26 29 28 29 31 36 40 40 42 45 36 32 41 39 35 45 39 32 31 31 31 30 29
11 12 19 21 20 10 16 6 8 7 4 6 6 9 13 24 30 32 31 28 25 23 23 23 22 23 25 27 28 27 27 29 32 32 33 38 36 46 37 37 40 38 34 36 30 29 28 28 27
10 15 18 23 19 14 7 5 4 10 9 6 10 14 19 28 31 31 29 28 24 23 22 23 25 26 26 26 26 25 25 26 29 32 30 26 38 30 40 39 25 35 41 42 41 30 27 27 27
14 15 19 11 7 4 3 4 9 8 7 10 11 15 23 26 28 29 29 28 26 23 24 23 25 27 26 26 26 27 25 26 28 29 28 31 33 38 31 31 26 25 35 39 44 39 33 29 27
11 13 5 3 2 4 4 8 13 7 12 15 15 18 25 29 28 28 28 26 24 21 22 21 25 27 27 24 26 28 27 25 27 27 26 30 32 32 27 31 31 32 27 41 41 41 38 33 31
10 4 1 4 2 5 18 9 3 8 10 12 15 21 27 30 26 28 26 25 24 20 18 18 21 21 18 21 25 26 26 23 23 23 24 29 29 28 32 33 25 25 30 31 38 44 39 34 28
6 5 3 5 8 2 6 9 12 13 10 13 17 23 27 29 28 27 23 22 19 18 16 16 18 18 15 14 18 23 22 25 28 23 27 32 29 31 28 33 33 33 34 38 38 41 31 28 29
7 5 5 4 2 4 5 12 13 10 16 18 17 26 32 29 28 24 23 22 20 17 15 16 19 17 17 14 17 22 27 29 24 31 26 30 30 32 33 35 35 39 32 27 29 35 35 32 30
9 8 7 6 6 3 2 8 5 14 21 25 24 29 38 31 28 26 23 23 23 23 20 17 20 19 17 17 17 19 22 26 23 24 25 28 31 38 30 37 38 33 33 31 33 27 29 29 24
15 12 12 8 4 8 7 17 20 12 21 25 27 34 42 29 27 25 23 25 26 27 25 23 21 19 16 16 16 19 22 21 23 23 22 27 33 35 37 39 37 35 32 30 34 35 31 30 25
Wind_Direction
238 218 214 201 200 205 208 202 233 256 267 253 250 212 200 201 198 208 190 182 163 172 189 185 186 200 204 197 197 193 192 195 197 196 197 191 186 182 182 191 204 196 187 185 178 163 147 152 154
235 215 200 197 216 193 185 213 238 254 242 216 212 213 200 186 211 187 211 183 175 182 191 181 187 199 206 207 208 198 193 188 195 196 202 199 195 199 207 214 208 197 189 183 181 172 166 161 156
212 200 194 195 216 189 188 194 209 234 220 204 204 210 204 194 179 218 235 203 179 199 205 186 189 201 210 213 214 206 192 172 180 189 195 200 204 208 215 217 209 203 192 187 183 179 178 174 163
196 182 189 200 159 176 200 213 237 260 222 209 216 211 206 205 200 213 231 223 211 216 225 206 198 205 216 214 213 216 207 205 202 200 202 197 202 209 211 210 213 203 195 188 188 186 189 184 180
189 185 186 177 186 193 176 183 219 251 262 237 236 233 226 212 210 217 234 242 231 232 230 227 213 208 216 220 218 218 216 212 212 209 210 208 210 211 212 209 210 212 201 193 192 194 195 195 192
193 189 168 127 170 167 193 222 233 256 265 268 261 253 241 240 227 230 236 248 239 234 235 233 225 222 219 223 219 221 223 219 217 216 214 212 211 211 211 210 208 209 212 202 201 200 207 206 205
165 181 145 113 152 189 222 255 262 273 279 276 261 257 254 247 241 234 235 245 250 236 241 236 229 222 227 230 227 222 224 227 224 223 221 216 212 212 213 212 210 208 208 215 206 208 215 215 215
168 159 158 184 200 246 258 268 281 286 280 272 254 247 253 246 242 237 239 244 249 244 238 239 234 226 229 231 231 231 229 227 229 229 227 223 219 215 216 216 214 212 208 213 217 213 217 222 223
143 164 181 209 248 280 290 290 288 285 278 270 251 242 250 256 257 250 246 245 249 247 242 229 227 228 234 238 235 234 235 234 232 233 233 228 227 226 221 222 219 220 212 213 219 222 223 228 222
100 176 227 267 286 295 288 289 286 279 277 262 245 246 250 256 267 267 252 246 245 248 244 239 227 229 234 239 247 241 242 238 238 235 235 235 232 229 227 225 223 223 221 218 217 222 228 235 226
51 44 358 355 351 326 307 294 298 289 275 260 251 251 264 275 275 266 263 254 245 242 244 240 231 237 234 242 243 250 247 243 240 240 236 235 237 235 232 229 228 226 225 224 224 224 227 236 229
51 48 33 44 17 355 331 326 321 303 282 270 262 251 252 264 270 263 263 263 254 244 240 242 240 232 232 237 241 242 249 254 245 241 239 235 237 238 237 235 230 231 227 227 226 226 227 234 230
26 348 354 301 347 344 330 319 318 317 308 287 274 274 267 270 274 270 258 257 259 255 247 240 241 240 233 232 237 240 238 245 251 249 241 239 237 236 236 237 237 231 230 231 233 231 233 234 229
74 80 12 328 332 347 340 327 326 317 308 301 308 311 302 292 278 279 280 269 262 259 252 250 245 243 240 234 236 237 242 238 243 249 249 242 241 239 237 236 238 237 231 231 231 235 236 237 231
28 17 349 338 336 347 347 321 317 304 294 293 314 299 293 293 300 301 296 292 285 275 266 259 249 245 246 241 238 231 244 236 241 246 241 250 242 242 239 236 237 239 236 233 232 232 237 237 234
345 319 354 336 338 333 340 318 315 321 301 288 287 275 286 296 308 321 315 303 301 294 284 271 262 255 246 245 243 238 230 239 237 245 243 244 234 236 239 237 232 235 237 235 235 235 236 237 236
345 335 336 337 324 327 327 327 317 296 288 287 276 292 301 312 331 333 326 308 293 288 286 278 270 262 255 245 245 242 239 236 245 240 241 244 231 239 234 233 233 230 233 235 232 235 236 237 237
327 329 327 326 316 324 325 317 317 281 280 265 282 337 328 335 333 325 333 329 314 293 276 276 276 269 263 252 241 241 242 238 238 246 253 242 250 244 222 222 230 230 228 229 232 232 234 235 235
325 318 320 327 323 323 330 320 315 274 289 306 327 344 347 331 334 336 324 317 312 298 285 271 265 271 266 261 256 244 243 245 241 240 238 259 243 245 229 210 212 222 228 230 230 231 232 234 234
313 311 319 325 322 317 320 317 272 299 290 312 328 342 341 330 324 314 316 317 315 293 287 279 271 263 267 264 260 255 244 244 245 243 241 233 241 249 253 234 237 220 216 223 227 228 230 233 236
309 312 322 321 323 325 322 305 268 260 305 293 334 319 316 313 310 314 314 313 311 294 287 284 279 267 262 264 261 257 250 243 244 245 247 250 250 255 251 246 251 247 221 216 223 229 232 235 239
313 315 319 316 315 311 319 282 284 232 249 280 308 304 310 320 316 313 315 315 309 296 288 283 278 271 264 261 262 260 260 248 245 251 250 244 242 242 255 249 258 249 242 221 218 226 230 234 236
308 315 314 306 298 301 275 266 264 242 230 263 295 318 320 320 315 314 316 317 308 296 292 284 280 275 267 257 253 252 259 247 238 238 247 243 233 234 233 253 253 255 228 248 213 216 224 231 233
312 315 313 294 291 291 225 259 284 228 233 263 296 306 315 322 318 316 314 314 308 299 294 287 284 278 270 255 244 243 249 244 235 235 244 234 235 232 238 242 247 252 253 231 218 216 209 218 227
312 326 314 337 7 234 220 272 263 241 253 283 286 301 318 324 326 322 316 309 303 298 290 288 290 283 267 250 240 240 245 241 232 230 236 234 230 235 231 228 251 249 255 232 223 216 213 206 213
313 333 216 242 256 280 290 248 263 280 274 264 286 311 324 331 328 328 324 315 305 298 292 293 300 295 269 246 237 240 245 234 233 240 223 226 223 236 232 232 241 243 234 240 233 224 226 221 214
310 292 258 270 268 262 248 271 267 275 246 271 298 321 330 335 337 337 335 327 317 305 290 291 296 295 284 255 245 239 236 233 239 235 224 230 217 226 236 227 230 237 228 233 229 220 214 210 215
287 269 280 248 304 269 285 288 263 249 256 276 292 327 337 338 336 335 335 333 332 320 295 286 287 285 279 270 248 239 240 238 235 239 232 224 228 226 223 229 236 222 212 211 205 205 209 210 214
286 259 265 254 252 217 280 256 284 290 274 278 282 319 331 334 330 329 328 326 321 315 308 283 277 274 274 267 257 251 245 241 235 231 230 232 232 236 227 238 227 212 202 208 216 219 213 209 211
268 267 269 236 235 245 277 277 304 286 271 285 296 307 316 327 324 325 326 323 322 316 308 293 271 262 268 272 254 254 247 242 233 225 230 232 229 241 230 232 223 214 199 206 220 206 217 218 212